TimeEDT,TemperatureF,Dew PointF,Humidity,Sea Level PressureIn,VisibilityMPH,Wind Direction,Wind SpeedMPH,Gust SpeedMPH,PrecipitationIn,Events,Conditions,WindDirDegrees,DateUTC
12:53 AM,52.0,39.0,61,29.95,10.0,NNW,3.5,-,N/A,,Overcast,330,2013-09-23 04:53:00
1:53 AM,52.0,39.9,63,29.95,10.0,NNW,4.6,-,N/A,,Overcast,330,2013-09-23 05:53:00
2:53 AM,51.1,41.0,68,29.95,10.0,NW,5.8,-,N/A,,Mostly Cloudy,320,2013-09-23 06:53:00
3:53 AM,48.0,39.9,74,29.97,10.0,NW,4.6,-,N/A,,Clear,320,2013-09-23 07:53:00
4:53 AM,44.1,39.0,82,29.99,10.0,Calm,Calm,-,N/A,,Clear,0,2013-09-23 08:53:00
5:53 AM,42.1,39.9,92,30.01,10.0,Calm,Calm,-,N/A,,Clear,0,2013-09-23 09:53:00
6:53 AM,41.0,39.0,93,30.03,10.0,West,3.5,-,N/A,,Clear,260,2013-09-23 10:53:00
7:53 AM,46.9,42.1,83,30.04,10.0,Calm,Calm,-,N/A,,Mostly Cloudy,0,2013-09-23 11:53:00
8:53 AM,52.0,41.0,66,30.03,10.0,Variable,4.6,-,N/A,,Clear,0,2013-09-23 12:53:00
9:53 AM,54.0,41.0,62,30.05,10.0,NW,12.7,17.3,N/A,,Mostly Cloudy,310,2013-09-23 13:53:00
10:53 AM,55.9,39.9,55,30.03,10.0,NNW,5.8,17.3,N/A,,Clear,340,2013-09-23 14:53:00
11:53 AM,57.9,39.9,51,30.03,10.0,North,11.5,25.3,N/A,,Clear,350,2013-09-23 15:53:00
12:53 PM,57.9,39.9,51,30.03,10.0,Variable,4.6,23.0,N/A,,Partly Cloudy,0,2013-09-23 16:53:00
1:53 PM,60.1,42.1,51,30.01,10.0,Variable,6.9,-,N/A,,Clear,0,2013-09-23 17:53:00
2:53 PM,61.0,42.1,50,30.01,10.0,NW,10.4,16.1,N/A,,Clear,320,2013-09-23 18:53:00
3:53 PM,62.1,42.1,48,30.00,10.0,Variable,5.8,-,N/A,,Clear,0,2013-09-23 19:53:00
4:53 PM,61.0,42.1,50,30.00,10.0,NW,10.4,-,N/A,,Clear,320,2013-09-23 20:53:00
5:53 PM,59.0,42.1,53,30.01,10.0,Variable,5.8,16.1,N/A,,Clear,0,2013-09-23 21:53:00
6:53 PM,55.0,42.1,62,30.04,10.0,Variable,5.8,-,N/A,,Clear,0,2013-09-23 22:53:00
7:53 PM,53.1,41.0,64,30.05,10.0,Variable,4.6,-,N/A,,Clear,0,2013-09-23 23:53:00
8:53 PM,51.1,41.0,68,30.05,10.0,Variable,4.6,-,N/A,,Clear,0,2013-09-24 00:53:00
9:53 PM,46.9,41.0,80,30.07,10.0,Calm,Calm,-,N/A,,Clear,0,2013-09-24 01:53:00
10:53 PM,43.0,39.9,89,30.08,10.0,Calm,Calm,-,N/A,,Clear,0,2013-09-24 02:53:00
11:53 PM,41.0,39.9,96,30.08,10.0,Calm,Calm,-,N/A,,Clear,0,2013-09-24 03:53:00